Location: Academy at Carrie F Thomas
(32.8490°N, 97.2053°W)
Time: 06:16:52
(UTC+00:00)

Meteor 2-15 Rocket - Pass Details

Date: 12 July 2022
Orbit: 939 x 956 km, 82.5° (Epoch: 12 August)

Event Time Altitude Azimuth Distance (km) Brightness Sun altitude
Rises 08:35:28 0° 20° (NNE) 3,632 8.7 -28.1°
Reaches altitude 10° 08:40:51 10° 59° (ENE) 2,676 7.6 -27.5°
Maximum altitude 08:41:53 10° 69° (ENE) 2,643 7.4 -27.3°
Drops below altitude 10° 08:42:56 10° 79° (E) 2,671 7.3 -27.2°
Sets 08:48:14 0° 118° (ESE) 3,605 7.6 -26.6°
